Wind_Speed
34 34 33 33 34 34 35 35 35 34 34 35 35 34 34 34 34 33 33 33 33 33 33 33 33 33 34 33 33 32 31 31 31 31 31 32 32 32
34 34 33 33 34 34 34 35 35 35 33 33 34 33 34 34 33 33 33 33 33 33 33 33 33 34 34 33 33 31 31 31 31 31 31 31 32 31
34 34 34 34 34 34 34 34 34 33 32 32 33 32 33 33 33 33 33 33 32 32 33 33 33 33 32 32 31 31 30 30 30 31 31 31 31 31
35 34 33 33 33 33 33 33 33 32 32 31 31 32 33 33 33 33 33 33 32 32 32 32 32 32 31 30 30 30 30 30 30 31 31 31 31 31
36 35 34 34 33 33 33 33 32 32 31 31 31 32 32 33 32 32 32 32 32 31 31 31 30 30 30 30 29 29 29 29 30 30 31 31 32 32
37 36 35 34 34 34 33 32 31 31 31 31 32 32 32 32 32 31 31 31 31 31 31 30 30 29 28 28 28 28 29 29 30 30 30 31 30 30
36 35 34 34 33 33 32 32 32 31 31 31 31 32 32 32 31 31 31 31 31 31 30 30 30 29 28 28 28 28 28 29 29 30 30 29 28 28
36 35 36 34 32 33 33 33 32 32 31 31 31 32 32 31 31 31 30 30 30 30 30 29 29 28 28 28 28 28 29 28 29 29 28 28 27 27
37 36 35 35 33 33 33 33 32 32 31 31 31 31 31 31 31 31 31 30 29 29 28 28 28 28 28 28 28 28 28 28 27 27 27 27 26 26
36 36 35 34 33 32 32 32 32 32 32 32 31 31 31 31 31 31 31 30 29 28 28 28 27 27 27 28 29 28 27 27 26 25 25 25 25 25
37 35 34 33 33 33 33 33 32 32 32 32 31 31 31 31 31 30 29 28 27 26 27 27 26 25 26 27 28 28 27 27 26 25 24 24 24 24
37 36 35 35 34 34 34 33 32 32 32 32 31 31 31 30 29 28 27 27 26 26 26 26 25 25 24 26 26 25 25 25 25 24 24 23 23 23
37 37 36 35 34 34 33 33 32 32 31 31 30 30 30 29 28 27 26 26 25 25 25 24 24 23 23 24 23 24 24 24 23 23 22 22 22 22
37 37 36 35 34 34 33 33 32 31 31 30 29 28 28 27 26 26 25 25 24 24 23 23 22 22 22 22 22 22 22 22 22 21 21 21 22 21
37 36 35 35 34 33 32 31 31 31 30 29 28 26 25 25 24 24 24 23 23 23 23 22 21 22 22 21 20 21 21 21 21 21 20 21 20 19
35 34 34 34 33 32 31 30 30 30 30 29 27 26 25 24 24 23 23 23 23 23 22 21 21 22 22 21 20 21 21 20 20 20 19 19 19 19
34 33 33 32 32 32 31 30 30 29 28 27 27 26 25 24 24 23 23 23 23 22 22 21 21 21 21 21 21 20 20 20 19 19 18 18 18 17
33 32 32 32 31 31 31 30 30 28 27 27 26 26 25 25 24 23 23 23 22 21 21 20 20 20 21 20 20 19 18 18 18 18 18 18 17 16
33 32 32 31 31 31 30 29 29 28 27 26 25 25 24 24 23 23 22 22 21 20 21 20 20 20 20 19 18 18 17 17 17 18 17 17 16 16
33 32 32 32 31 31 30 29 28 28 27 25 24 24 23 23 22 22 21 21 21 20 20 20 19 19 18 18 17 16 16 16 16 17 17 16 16 15
31 32 32 32 31 30 29 28 28 27 25 24 24 23 23 23 22 21 21 21 21 20 19 19 18 18 17 16 15 15 15 15 15 16 16 15 14 15
30 30 30 30 30 29 28 27 27 26 25 25 24 23 22 22 21 21 21 21 20 20 18 18 17 16 15 14 14 14 14 14 15 15 15 15 14 14
29 29 29 28 28 27 26 25 25 25 25 25 24 24 23 22 21 21 21 21 20 19 17 16 16 15 14 14 14 14 14 14 14 14 15 14 14 14
Wind_Direction
279 282 284 287 288 289 290 293 295 297 297 299 300 301 301 301 302 302 301 301 301 301 301 301 301 301 302 300 298 294 292 291 290 290 291 291 289 289
279 281 283 286 288 288 291 293 294 297 298 298 299 300 301 302 302 303 303 302 301 301 302 302 301 301 301 300 299 296 294 293 292 291 291 292 291 291
279 281 283 285 286 287 290 292 294 296 298 298 298 299 300 302 303 303 305 304 303 302 303 303 303 303 303 301 300 297 295 293 293 293 292 293 292 292
278 281 283 284 285 286 288 290 292 294 296 298 298 300 301 303 303 303 304 305 304 303 304 305 305 305 304 303 302 299 296 294 294 295 295 295 294 294
278 279 280 281 282 284 287 289 290 292 295 296 298 301 301 303 303 303 304 304 305 304 305 306 307 307 305 304 303 302 299 296 296 296 296 297 297 296
275 277 278 279 280 283 285 288 289 291 293 295 298 300 302 302 302 303 303 302 303 304 306 306 306 308 307 306 306 303 301 299 299 298 298 300 299 298
273 275 276 278 280 281 284 287 288 290 292 294 297 299 301 301 301 301 302 302 302 304 305 305 306 307 307 307 307 306 305 303 301 300 300 301 299 300
270 271 274 275 278 281 284 286 287 289 291 293 297 299 301 301 302 301 301 303 303 305 306 306 305 306 307 306 306 307 307 305 303 302 302 302 300 300
268 270 272 273 276 280 283 285 286 289 291 294 296 298 299 300 301 301 301 302 302 303 305 305 305 305 305 307 307 308 307 306 305 303 303 304 303 303
267 268 270 271 273 276 280 282 284 288 290 292 295 296 298 300 301 302 301 300 300 301 303 305 306 305 305 307 308 308 307 307 305 303 305 305 305 305
266 267 268 270 272 275 278 281 283 286 288 291 293 295 297 299 300 301 302 302 302 301 302 305 305 305 307 309 311 309 308 308 307 306 307 308 308 308
265 267 268 270 272 274 277 279 281 283 286 289 291 293 296 298 298 300 302 303 303 301 303 305 306 307 309 312 313 313 312 312 310 310 311 312 312 311
264 265 267 268 270 272 274 277 279 281 284 286 289 292 294 295 297 299 301 303 303 303 304 306 307 308 311 313 313 314 315 316 315 314 316 316 316 315
263 263 264 266 268 269 272 275 277 280 282 284 287 290 292 293 295 297 300 301 303 305 305 306 307 309 312 313 314 316 317 318 318 316 316 317 318 317
261 262 262 263 265 267 271 273 276 279 280 282 284 287 289 290 292 294 297 299 301 304 305 306 307 310 314 315 315 317 318 318 318 318 317 318 319 319
259 261 261 262 263 265 269 272 275 278 279 279 280 283 285 287 288 290 292 295 299 301 302 303 305 309 312 316 317 317 317 318 320 321 322 323 324 324
257 258 260 261 262 264 267 270 272 275 275 275 277 280 281 283 285 287 289 293 298 299 300 302 305 308 310 313 316 317 317 320 321 322 324 324 325 326
254 256 259 260 261 263 265 268 269 271 272 273 275 276 278 281 283 286 289 293 296 298 300 302 304 307 309 311 313 314 315 318 322 322 323 323 325 327
254 256 257 259 261 263 264 265 266 267 269 271 273 273 276 279 281 284 289 292 292 295 299 301 303 305 308 309 311 311 314 317 322 326 326 326 326 327
255 255 256 258 261 261 262 261 262 264 266 269 270 270 272 276 279 283 287 289 291 293 296 299 302 303 306 310 310 310 312 317 322 327 329 330 331 332
255 255 256 257 258 258 258 259 260 260 261 264 266 268 270 273 277 281 284 286 287 290 293 295 297 300 305 311 312 311 312 316 321 327 330 331 333 335
256 255 256 256 255 255 256 258 259 258 258 260 264 267 270 272 275 278 281 284 286 288 289 291 293 295 301 306 311 313 312 316 321 327 329 330 331 334
256 255 255 253 252 252 253 255 256 257 257 259 262 265 269 271 273 275 277 281 284 285 285 286 288 290 295 302 306 312 315 316 319 323 329 332 334 337
Height
5724 5723 5722 5721 5719 5718 5716 5714 5712 5710 5707 5702 5698 5694 5690 5686 5683 5679 5675 5672 5669 5666 5663 5660 5657 5654 5651 5647 5644 5641 5639 5637 5635 5634 5632 5630 5628 5626
5716 5715 5714 5713 5711 5710 5707 5705 5703 5700 5697 5694 5690 5686 5682 5678 5674 5671 5667 5664 5661 5658 5655 5652 5649 5646 5642 5639 5636 5633 5631 5629 5627 5625 5623 5621 5619 5617
5708 5707 5706 5705 5704 5702 5700 5697 5695 5692 5689 5687 5683 5679 5675 5671 5667 5663 5659 5656 5653 5650 5647 5644 5641 5638 5634 5631 5628 5625 5623 5621 5619 5617 5615 5612 5610 5608
5699 5699 5698 5697 5695 5694 5692 5690 5687 5684 5682 5679 5676 5672 5668 5664 5660 5656 5653 5649 5646 5643 5640 5637 5633 5630 5627 5624 5621 5618 5616 5613 5611 5609 5607 5604 5602 5599
5690 5690 5689 5688 5687 5685 5684 5682 5679 5677 5674 5671 5669 5665 5661 5657 5654 5650 5646 5643 5639 5636 5633 5630 5626 5623 5620 5617 5614 5611 5608 5606 5604 5601 5599 5596 5593 5590
5681 5681 5680 5679 5678 5677 5676 5674 5671 5669 5667 5664 5661 5658 5654 5650 5647 5644 5640 5637 5634 5630 5627 5623 5620 5616 5613 5610 5607 5604 5601 5599 5596 5594 5591 5588 5584 5581
5672 5672 5671 5670 5669 5668 5667 5665 5663 5661 5659 5657 5654 5651 5647 5644 5640 5637 5634 5631 5628 5625 5621 5617 5614 5610 5607 5604 5601 5598 5595 5592 5589 5586 5583 5580 5576 5573
5662 5662 5662 5662 5661 5660 5658 5657 5655 5653 5651 5649 5646 5643 5640 5637 5633 5630 5627 5624 5622 5619 5616 5612 5608 5605 5601 5598 5595 5592 5589 5585 5582 5579 5575 5572 5569 5566
5652 5653 5653 5653 5652 5651 5650 5648 5647 5645 5643 5641 5639 5636 5633 5630 5626 5623 5620 5617 5614 5611 5609 5606 5602 5599 5595 5592 5589 5586 5582 5579 5575 5572 5569 5566 5562 5559
5642 5643 5643 5643 5643 5642 5641 5640 5639 5637 5636 5634 5631 5629 5625 5622 5619 5616 5613 5610 5607 5605 5602 5600 5597 5593 5590 5586 5583 5579 5576 5573 5569 5566 5563 5560 5556 5553
5632 5633 5633 5634 5634 5634 5633 5632 5631 5629 5627 5625 5623 5621 5617 5614 5612 5609 5606 5603 5601 5599 5596 5594 5591 5588 5585 5581 5577 5573 5570 5567 5563 5560 5557 5554 5551 5547
5622 5623 5624 5624 5624 5624 5624 5624 5623 5622 5620 5618 5616 5613 5610 5607 5605 5602 5600 5597 5595 5593 5591 5588 5585 5582 5580 5576 5572 5568 5564 5561 5558 5555 5552 5549 5546 5542
5611 5612 5613 5614 5614 5615 5615 5615 5614 5613 5612 5610 5608 5606 5603 5601 5599 5596 5594 5592 5589 5587 5585 5582 5580 5577 5574 5571 5567 5564 5560 5557 5553 5550 5547 5544 5541 5538
5600 5602 5603 5604 5605 5605 5606 5606 5605 5604 5603 5602 5601 5599 5597 5595 5593 5590 5588 5586 5583 5581 5579 5577 5574 5572 5569 5566 5563 5560 5556 5553 5550 5547 5544 5540 5537 5533
5589 5591 5592 5594 5595 5596 5596 5597 5596 5596 5595 5594 5593 5592 5590 5588 5586 5584 5582 5580 5578 5576 5573 5571 5569 5567 5564 5561 5559 5556 5553 5550 5546 5543 5540 5537 5534 5530
5579 5581 5582 5584 5585 5586 5587 5588 5588 5588 5587 5587 5586 5585 5583 5582 5580 5579 5577 5575 5573 5571 5569 5567 5565 5562 5560 5557 5555 5552 5549 5546 5543 5540 5536 5533 5530 5527
5569 5571 5573 5574 5576 5577 5578 5579 5579 5579 5579 5579 5578 5578 5577 5576 5574 5573 5571 5569 5567 5566 5564 5562 5560 5558 5555 5553 5550 5548 5545 5542 5539 5536 5533 5530 5527 5524
5559 5561 5563 5565 5567 5568 5569 5570 5571 5571 5571 5571 5571 5571 5570 5569 5568 5567 5565 5564 5562 5560 5559 5557 5555 5553 5551 5548 5546 5544 5541 5538 5536 5533 5530 5528 5525 5522
5549 5552 5554 5556 5557 5559 5560 5561 5562 5563 5563 5563 5563 5563 5563 5563 5562 5561 5560 5558 5557 5555 5554 5552 5550 5548 5547 5544 5542 5540 5537 5535 5533 5530 5527 5525 5522 5519
5540 5542 5544 5546 5548 5549 5551 5552 5553 5554 5555 5556 5556 5556 5556 5556 5556 5555 5554 5553 5552 5551 5549 5547 5546 5544 5542 5540 5538 5536 5534 5532 5530 5528 5525 5523 5520 5517
5530 5532 5534 5536 5538 5540 5541 5543 5544 5546 5547 5548 5549 5550 5550 5550 5550 5549 5548 5548 5547 5546 5544 5543 5541 5540 5538 5536 5534 5532 5530 5529 5527 5525 5523 5521 5519 5516
5521 5523 5525 5527 5529 5531 5533 5534 5536 5538 5539 5541 5542 5543 5543 5543 5544 5543 5543 5542 5542 5541 5539 5538 5537 5536 5535 5533 5531 5530 5528 5526 5524 5522 5520 5519 5516 5514
5512 5514 5516 5518 5520 5522 5524 5526 5528 5530 5532 5534 5535 5536 5536 5537 5537 5537 5537 5537 5536 5535 5535 5534 5533 5532 5532 5530 5529 5528 5526 5524 5522 5520 5518 5516 5513 5511